User: anonymous   Login
Location: Unspecified
(0.0000°N, 0.0000°E)
Time: 06:55:06
(UTC+00:00)
Language:

STARLINK-30236 - Orbit

View from above orbital plane
View from above orbital plane
View from above satellite
View from above satellite

Ground track
Ground track

The orbit is defined by the following mean orbital elements,

1 57300U          26145.43256297 +.00000000 +00000-0 -11711-4 0 00000
2 57300  43.0005 149.8145 0001306 267.1896  92.8806 15.27588338    03
Epoch (UTC): 25 May 2026 10:22:53
Eccentricity: 0.0001306
inclination: 43.0005°
perigee height: 482 km
apogee height: 484 km
right ascension of ascending node: 149.8145°
argument of perigee: 267.1896°
revolutions per day: 15.27588338
mean anomaly at epoch: 92.8806°

The dashed part of the orbit path shows where the satellite is in the earth's shadow,  

DLR